| time (UTC) | temp C | wind direction | speed KPH | gust KPH | rain 1hr cm | rain 24hr cm | rain mn cm | humidity % | barometer mb |
| 20260504214558 | 25 | 254 | 0.0 | 8.0 | 0.00 | 0.00 | 0.00 | 40 | 1012.5 |
| 20260504213037 | 25 | 228 | 0.0 | 11.3 | 0.00 | 0.00 | 0.00 | 43 | 1012.6 |
| 20260504211538 | 25 | 346 | 0.0 | 6.4 | 0.00 | 0.00 | 0.00 | 42 | 1012.7 |
| 20260504210017 | 25 | 63 | 0.0 | 11.3 | 0.00 | 0.00 | 0.00 | 43 | 1012.7 |
| 20260504204514 | 25 | 236 | 0.0 | 3.2 | 0.00 | 0.00 | 0.00 | 46 | 1012.8 |
| 20260504203107 | 25 | 217 | 0.0 | 9.7 | 0.00 | 0.00 | 0.00 | 44 | 1012.9 |
| 20260504201555 | 25 | 188 | 1.6 | 16.1 | 0.00 | 0.00 | 0.00 | 45 | 1013.1 |
| 20260504200035 | 24 | 241 | 0.0 | 8.0 | 0.00 | 0.00 | 0.00 | 47 | 1013.3 |
| 20260504194535 | 25 | 208 | 0.0 | 1.6 | 0.00 | 0.00 | 0.00 | 45 | 1013.6 |
| 20260504193017 | 24 | 201 | 0.0 | 8.0 | 0.00 | 0.00 | 0.00 | 49 | 1013.6 |
| 20260504191522 | 24 | 71 | 0.0 | 8.0 | 0.00 | 0.00 | 0.00 | 48 | 1013.9 |
| 20260504190121 | 24 | 209 | 0.0 | 8.0 | 0.00 | 0.00 | 0.00 | 49 | 1014.0 |
| 20260504184551 | 24 | 295 | 0.0 | 6.4 | 0.00 | 0.00 | 0.00 | 49 | 1014.0 |
| 20260504183032 | 24 | 294 | 0.0 | 11.3 | 0.00 | 0.00 | 0.00 | 50 | 1014.5 |
| 20260504181527 | 23 | 267 | 0.0 | 4.8 | 0.00 | 0.00 | 0.00 | 53 | 1014.7 |
| 20260504180007 | 23 | 235 | 0.0 | 4.8 | 0.00 | 0.00 | 0.00 | 51 | 1014.8 |
| 20260504174503 | 23 | 309 | 0.0 | 8.0 | 0.00 | 0.00 | 0.00 | 54 | 1015.1 |
| 20260504173044 | 23 | 201 | 0.0 | 11.3 | 0.00 | 0.00 | 0.00 | 55 | 1015.1 |
| 20260504171540 | 22 | 221 | 0.0 | 12.9 | 0.00 | 0.00 | 0.00 | 55 | 1015.4 |
| 20260504081554 | 8 | 248 | 0.0 | 0.0 | 0.00 | 0.00 | 0.00 | 89 | 1016.0 |
| 20260504044532 | 10 | 248 | 0.0 | 0.0 | 0.00 | 0.00 | 0.00 | 81 | 1017.4 |
| 20260504043009 | 10 | 248 | 0.0 | 0.0 | 0.00 | 0.00 | 0.00 | 80 | 1017.4 |
| 20260504041507 | 10 | 248 | 0.0 | 0.0 | 0.00 | 0.00 | 0.00 | 79 | 1017.6 |
| 20260504040047 | 10 | 248 | 0.0 | 0.0 | 0.00 | 0.00 | 0.00 | 78 | 1017.6 |
| 20260504034545 | 11 | 248 | 0.0 | 0.0 | 0.00 | 0.00 | 0.00 | 77 | 1017.8 |
| 20260504033028 | 11 | 248 | 0.0 | 0.0 | 0.00 | 0.00 | 0.00 | 77 | 1018.0 |
| 20260504031528 | 11 | 248 | 0.0 | 0.0 | 0.00 | 0.00 | 0.00 | 76 | 1018.0 |
| 20260504030116 | 11 | 248 | 0.0 | 0.0 | 0.00 | 0.00 | 0.00 | 75 | 1018.0 |
| 20260504024505 | 12 | 248 | 0.0 | 0.0 | 0.00 | 0.00 | 0.00 | 75 | 1017.8 |
| 20260504023043 | 12 | 248 | 0.0 | 0.0 | 0.00 | 0.00 | 0.00 | 74 | 1017.6 |
| 20260504021540 | 12 | 248 | 0.0 | 0.0 | 0.00 | 0.00 | 0.00 | 71 | 1017.5 |
| 20260504020020 | 13 | 248 | 0.0 | 0.0 | 0.00 | 0.00 | 0.00 | 70 | 1017.4 |
| 20260504014533 | 13 | 248 | 0.0 | 0.0 | 0.00 | 0.00 | 0.00 | 68 | 1017.3 |
| 20260504013114 | 14 | 248 | 0.0 | 0.0 | 0.00 | 0.00 | 0.00 | 67 | 1017.2 |
| 20260504011552 | 15 | 248 | 0.0 | 0.0 | 0.00 | 0.00 | 0.00 | 64 | 1017.1 |
| 20260504010110 | 15 | 248 | 0.0 | 0.0 | 0.00 | 0.00 | 0.00 | 61 | 1017.1 |
| 20260504004527 | 16 | 248 | 0.0 | 0.0 | 0.00 | 0.00 | 0.00 | 59 | 1016.8 |
| 20260504003023 | 17 | 248 | 0.0 | 0.0 | 0.00 | 0.00 | 0.00 | 56 | 1016.6 |
| 20260504001501 | 18 | 298 | 0.0 | 0.0 | 0.00 | 0.00 | 0.00 | 53 | 1016.7 |
| 20260504000100 | 18 | 298 | 0.0 | 0.0 | 0.00 | 0.00 | 0.00 | 49 | 1016.7 |
| 20260503234539 | 20 | 299 | 0.0 | 0.0 | 0.00 | 0.00 | 0.00 | 46 | 1016.7 |
| 20260503233042 | 20 | 299 | 0.0 | 0.0 | 0.00 | 0.00 | 0.00 | 41 | 1016.7 |
| 20260503231521 | 21 | 300 | 0.0 | 0.0 | 0.00 | 0.00 | 0.00 | 39 | 1016.6 |
| 20260503230020 | 21 | 304 | 0.0 | 1.6 | 0.00 | 0.00 | 0.00 | 39 | 1016.7 |
| 20260503224502 | 20 | 326 | 0.0 | 0.0 | 0.00 | 0.00 | 0.00 | 39 | 1016.8 |
| 20260503223100 | 21 | 335 | 0.0 | 4.8 | 0.00 | 0.00 | 0.00 | 38 | 1016.9 |
| 20260503221548 | 21 | 331 | 0.0 | 0.0 | 0.00 | 0.00 | 0.00 | 39 | 1017.0 |
| 20260503220039 | 21 | 279 | 0.0 | 0.0 | 0.00 | 0.00 | 0.00 | 41 | 1017.1 |